Location: Marengo
(51.4813°N, 109.7825°W)
Time: 07:04:08
(UTC+00:00)

BlueWalker 3 - Visible Passes

Search period start: 02 December 2022 00:00
Search period end: 12 December 2022 00:00
Orbit: 500 x 519 km, 53.2° (Epoch: 01 December)

Date Brightness Start Highest point End Pass type
(mag) Time Alt. Az. Time Alt. Az. Time Alt. Az.
02 Dec 2.0 00:11:35 10° WSW 00:15:31 85° NNW 00:18:55 13° ENE visible
02 Dec 2.4 01:50:28 10° W 01:53:45 56° NW 01:53:45 56° NW visible
02 Dec 2.0 23:53:12 10° WSW 23:57:09 84° NNW 00:01:04 10° ENE visible
03 Dec 1.9 01:32:06 10° WNW 01:36:00 69° N 01:36:06 68° NNE visible
03 Dec 5.4 03:10:51 10° WNW 03:10:55 10° WNW 03:10:55 10° WNW visible
04 Dec 1.9 01:13:43 10° WNW 01:17:37 69° N 01:18:28 51° ENE visible
04 Dec 4.9 02:52:28 10° WNW 02:53:17 16° WNW 02:53:17 16° WNW visible
05 Dec 1.9 00:55:20 10° WNW 00:59:15 70° N 01:00:52 33° E visible
05 Dec 4.3 02:34:05 10° WNW 02:35:42 23° W 02:35:42 23° W visible
06 Dec 1.9 00:36:56 10° WNW 00:40:52 71° N 00:43:19 21° E visible
06 Dec 3.6 02:15:41 10° WNW 02:18:09 34° W 02:18:09 34° W visible
07 Dec 1.9 00:18:32 10° WNW 00:22:28 72° N 00:25:51 13° E visible
07 Dec 2.8 01:57:17 10° WNW 02:00:41 47° SW 02:00:41 47° SW visible
08 Dec 2.0 00:00:07 10° WNW 00:04:03 73° N 00:07:57 10° E visible
08 Dec 2.7 01:38:53 10° WNW 01:42:40 48° SSW 01:43:20 42° S visible
09 Dec 2.9 01:20:29 10° WNW 01:24:13 46° SSW 01:26:07 25° SSE visible
09 Dec 5.3 03:00:58 10° WSW 03:00:58 10° WSW 03:00:58 10° WSW visible
10 Dec 3.0 01:02:04 10° WNW 01:05:48 44° SSW 01:09:04 13° SE visible
10 Dec 5.0 02:42:55 10° WSW 02:43:39 10° SW 02:43:57 10° SW visible
11 Dec 3.2 00:43:39 10° WNW 00:47:21 42° SSW 00:51:03 10° SE visible
